Location: Zwardon
(49.5072°N, 18.9833°E)
Time: 05:53:22
(UTC+02:00)

ISS - Visible Passes

Search period start: 26 May 2020 00:00
Search period end: 05 June 2020 00:00
Orbit: 417 x 420 km, 51.6° (Epoch: 26 May)

Date Brightness Start Highest point End Pass type
(mag) Time Alt. Az. Time Alt. Az. Time Alt. Az.
26 May -3.5 21:34:46 10° WNW 21:38:08 68° NNE 21:41:30 10° E visible
26 May -3.2 23:11:39 10° WNW 23:14:50 40° SSW 23:15:06 39° SSW visible
27 May -3.6 22:23:47 10° WNW 22:27:06 57° SSW 22:28:52 24° SE visible
28 May -1.1 00:01:45 10° WSW 00:01:47 10° WSW 00:01:47 10° WSW visible
28 May -3.8 21:35:56 10° WNW 21:39:19 78° SSW 21:42:40 10° ESE visible
28 May -2.0 23:13:15 10° W 23:15:35 19° SW 23:15:35 19° SW visible
29 May -2.5 22:25:07 10° W 22:28:03 28° SW 22:29:25 21° S visible
30 May -3.0 21:37:09 10° WNW 21:40:20 40° SSW 21:43:15 12° SE visible
31 May -1.4 22:27:09 10° WSW 22:28:47 13° SW 22:30:04 11° SSW visible
01 Jun -1.8 21:38:38 10° W 21:41:08 19° SW 21:43:38 10° S visible
